When you browse on this site, cookies collect data to enhance your experience and personalize the content and advertising you see.
Visit our Privacy Policy to learn more. By continuing to use the site, you agree to this use of cookies and data.
  • In Spain
  • List of Countries
  • For 7 days
  • Water Temperature
  • Satellite Maps
  • Weather Map
  • Weather Widgets
  • user-avatar
    Login

    Hourly Weather Mendoza

    Today, 12 December, Wednesday

    Time Temperature Precipitation Wind Pressure Humidity
    00:00 +25°C° 0.3 mm 4 mps 699 mmHg 60%
    01:00 +23°C° 0.3 mm 5 mps 699 mmHg 66%
    02:00 +23°C° 0.2 mm 5 mps 699 mmHg 64%
    03:00 +22°C° 0.2 mm 5 mps 699 mmHg 63%
    04:00 +22°C° 0.2 mm 5 mps 699 mmHg 62%
    05:00 +22°C° 0.1 mm 5 mps 699 mmHg 57%
    06:00 +22°C° 0.1 mm 5 mps 699 mmHg 52%
    07:00 +21°C° 0.1 mm 5 mps 699 mmHg 48%
    08:00 +23°C° 0 mm 5 mps 699 mmHg 43%
    09:00 +25°C° 0 mm 5 mps 698 mmHg 39%
    10:00 +26°C° 0 mm 5 mps 698 mmHg 35%
    11:00 +27°C° 0 mm 4 mps 697 mmHg 34%
    12:00 +28°C° 0 mm 4 mps 697 mmHg 32%
    13:00 +29°C° 0 mm 4 mps 696 mmHg 31%
    14:00 +29°C° 0 mm 3 mps 695 mmHg 31%
    15:00 +30°C° 0 mm 3 mps 695 mmHg 30%
    16:00 +30°C° 0 mm 3 mps 694 mmHg 30%
    17:00 +29°C° 0 mm 3 mps 694 mmHg 32%
    18:00 +28°C° 0 mm 3 mps 694 mmHg 34%
    19:00 +28°C° 0 mm 3 mps 694 mmHg 36%
    20:00 +27°C° 0 mm 3 mps 694 mmHg 37%
    21:00 +26°C° 0 mm 3 mps 694 mmHg 39%
    22:00 +26°C° 0 mm 2 mps 694 mmHg 40%
    23:00 +25°C° 0.1 mm 2 mps 694 mmHg 41%

    Tomorrow, 13 December, Thursday

    Time Temperature Precipitation Wind Pressure Humidity
    00:00 +25°C° 0.1 mm 2 mps 693 mmHg 41%
    01:00 +24°C° 0.1 mm 2 mps 693 mmHg 42%
    02:00 +24°C° 0 mm 2 mps 693 mmHg 40%
    03:00 +24°C° 0 mm 2 mps 692 mmHg 39%
    04:00 +23°C° 0 mm 2 mps 692 mmHg 37%
    05:00 +25°C° 0 mm 3 mps 692 mmHg 35%
    06:00 +26°C° 0 mm 3 mps 692 mmHg 33%
    07:00 +28°C° 0 mm 3 mps 693 mmHg 31%
    08:00 +29°C° 0 mm 4 mps 693 mmHg 30%
    09:00 +30°C° 0 mm 4 mps 692 mmHg 28%
    10:00 +33°C° 0 mm 4 mps 692 mmHg 26%
    11:00 +34°C° 0 mm 4 mps 692 mmHg 23%
    12:00 +35°C° 0 mm 5 mps 692 mmHg 20%
    13:00 +36°C° 0 mm 5 mps 692 mmHg 16%
    14:00 +36°C° 0.1 mm 6 mps 692 mmHg 16%
    15:00 +36°C° 0.1 mm 7 mps 692 mmHg 15%
    16:00 +37°C° 0.1 mm 8 mps 692 mmHg 15%
    17:00 +34°C° 0.1 mm 8 mps 693 mmHg 17%
    18:00 +32°C° 0.1 mm 7 mps 693 mmHg 20%
    19:00 +28°C° 0.1 mm 7 mps 694 mmHg 22%
    20:00 +27°C° 0.1 mm 7 mps 694 mmHg 28%
    21:00 +26°C° 0.1 mm 6 mps 694 mmHg 33%
    22:00 +24°C° 0.1 mm 6 mps 695 mmHg 39%
    23:00 +25°C° 0.3 mm 5 mps 695 mmHg 42%

    Day after tomorrow, 14 December, Friday

    Time Temperature Precipitation Wind Pressure Humidity
    00:00 +23°C° 0.3 mm 4 mps 695 mmHg 46%
    01:00 +22°C° 0.3 mm 3 mps 695 mmHg 49%
    02:00 +21°C° 0 mm 4 mps 695 mmHg 47%
    03:00 +21°C° 0 mm 5 mps 695 mmHg 44%
    04:00 +20°C° 0 mm 5 mps 696 mmHg 41%
    05:00 +20°C° 0 mm 5 mps 696 mmHg 38%
    06:00 +20°C° 0 mm 5 mps 697 mmHg 36%
    07:00 +20°C° 0 mm 5 mps 697 mmHg 34%
    08:00 +21°C° 0 mm 5 mps 697 mmHg 31%
    09:00 +23°C° 0 mm 5 mps 697 mmHg 29%
    10:00 +25°C° 0 mm 5 mps 697 mmHg 26%
    11:00 +26°C° 0 mm 5 mps 697 mmHg 25%
    12:00 +27°C° 0 mm 5 mps 697 mmHg 23%
    13:00 +28°C° 0 mm 5 mps 696 mmHg 22%
    14:00 +28°C° 0 mm 5 mps 696 mmHg 22%
    15:00 +28°C° 0 mm 5 mps 696 mmHg 21%
    16:00 +28°C° 0 mm 5 mps 696 mmHg 21%
    17:00 +28°C° 0 mm 4 mps 697 mmHg 23%
    18:00 +27°C° 0 mm 4 mps 697 mmHg 25%
    19:00 +26°C° 0 mm 3 mps 698 mmHg 27%
    20:00 +25°C° 0 mm 3 mps 698 mmHg 29%
    21:00 +24°C° 0 mm 3 mps 699 mmHg 30%
    22:00 +24°C° 0 mm 3 mps 700 mmHg 32%
    23:00 +22°C° 0 mm 3 mps 699 mmHg 34%

    15 December, Saturday

    Time Temperature Precipitation Wind Pressure Humidity
    00:00 +21°C° 0 mm 3 mps 699 mmHg 36%
    01:00 +20°C° 0 mm 3 mps 699 mmHg 37%
    02:00 +19°C° 0 mm 3 mps 699 mmHg 38%
    03:00 +19°C° 0 mm 3 mps 698 mmHg 39%
    04:00 +18°C° 0 mm 3 mps 698 mmHg 40%
    05:00 +19°C° 0 mm 3 mps 699 mmHg 37%
    06:00 +20°C° 0 mm 3 mps 699 mmHg 34%
    07:00 +21°C° 0 mm 3 mps 699 mmHg 31%
    08:00 +24°C° 0 mm 3 mps 699 mmHg 28%
    09:00 +25°C° 0 mm 3 mps 699 mmHg 26%
    10:00 +27°C° 0 mm 3 mps 699 mmHg 24%
    11:00 +28°C° 0 mm 3 mps 698 mmHg 23%
    12:00 +29°C° 0 mm 3 mps 698 mmHg 22%
    13:00 +30°C° 0 mm 3 mps 698 mmHg 21%
    14:00 +30°C° 0 mm 3 mps 697 mmHg 21%
    15:00 +31°C° 0 mm 3 mps 697 mmHg 21%
    16:00 +31°C° 0 mm 3 mps 697 mmHg 21%
    17:00 +30°C° 0 mm 3 mps 697 mmHg 23%
    18:00 +29°C° 0 mm 3 mps 698 mmHg 25%
    19:00 +28°C° 0 mm 3 mps 698 mmHg 27%
    20:00 +28°C° 0 mm 2 mps 698 mmHg 27%
    21:00 +28°C° 0 mm 2 mps 699 mmHg 28%
    22:00 +27°C° 0 mm 2 mps 699 mmHg 28%
    23:00 +27°C° 0 mm 2 mps 699 mmHg 29%

    16 December, Sunday

    Time Temperature Precipitation Wind Pressure Humidity
    00:00 +26°C° 0 mm 2 mps 698 mmHg 29%
    01:00 +25°C° 0 mm 2 mps 698 mmHg 29%
    02:00 +25°C° 0 mm 2 mps 698 mmHg 29%
    03:00 +24°C° 0 mm 1 mps 698 mmHg 29%
    04:00 +24°C° 0 mm 1 mps 698 mmHg 29%
    05:00 +25°C° 0 mm 1 mps 698 mmHg 27%
    06:00 +27°C° 0 mm 2 mps 699 mmHg 25%
    07:00 +28°C° 0 mm 2 mps 700 mmHg 24%
    08:00 +29°C° 0 mm 2 mps 700 mmHg 23%
    09:00 +31°C° 0 mm 2 mps 700 mmHg 22%
    10:00 +32°C° 0 mm 2 mps 700 mmHg 22%
    11:00 +34°C° 0 mm 3 mps 699 mmHg 21%
    12:00 +35°C° 0 mm 3 mps 699 mmHg 20%
    13:00 +36°C° 0 mm 3 mps 699 mmHg 19%
    14:00 +36°C° 0 mm 3 mps 698 mmHg 19%
    15:00 +36°C° 0 mm 3 mps 698 mmHg 18%
    16:00 +37°C° 0 mm 3 mps 698 mmHg 17%
    17:00 +36°C° 0 mm 3 mps 698 mmHg 19%
    18:00 +35°C° 0 mm 3 mps 698 mmHg 20%
    19:00 +34°C° 0 mm 2 mps 698 mmHg 22%
    20:00 +32°C° 0 mm 2 mps 698 mmHg 23%
    21:00 +31°C° 0 mm 2 mps 699 mmHg 25%
    22:00 +30°C° 0 mm 1 mps 699 mmHg 27%
    23:00 +30°C° 0 mm 1 mps 698 mmHg 29%

    17 December, Monday

    Time Temperature Precipitation Wind Pressure Humidity
    00:00 +29°C° 0 mm 2 mps 698 mmHg 31%
    01:00 +28°C° 0 mm 2 mps 698 mmHg 33%
    02:00 +28°C° 0 mm 2 mps 698 mmHg 32%
    03:00 +28°C° 0 mm 2 mps 698 mmHg 32%
    04:00 +27°C° 0 mm 3 mps 698 mmHg 31%
    05:00 +27°C° 0 mm 4 mps 699 mmHg 29%
    06:00 +28°C° 0 mm 6 mps 699 mmHg 28%
    07:00 +28°C° 0 mm 7 mps 700 mmHg 26%
    08:00 +29°C° 0 mm 6 mps 700 mmHg 25%
    09:00 +32°C° 0 mm 6 mps 700 mmHg 23%
    10:00 +33°C° 0 mm 6 mps 700 mmHg 22%
    11:00 +34°C° 0 mm 5 mps 699 mmHg 22%
    12:00 +35°C° 0 mm 4 mps 699 mmHg 22%
    13:00 +35°C° 0 mm 4 mps 698 mmHg 22%
    14:00 +36°C° 0 mm 3 mps 698 mmHg 22%
    15:00 +36°C° 0 mm 3 mps 698 mmHg 22%
    16:00 +36°C° 0 mm 3 mps 697 mmHg 22%
    17:00 +36°C° 0 mm 3 mps 698 mmHg 24%
    18:00 +35°C° 0 mm 3 mps 698 mmHg 26%
    19:00 +34°C° 0 mm 3 mps 698 mmHg 28%
    20:00 +33°C° 0.1 mm 3 mps 698 mmHg 31%
    21:00 +32°C° 0.1 mm 4 mps 698 mmHg 33%
    22:00 +30°C° 0.1 mm 4 mps 698 mmHg 36%
    23:00 +30°C° 0 mm 4 mps 697 mmHg 37%
    Show more